Theta_e
316 315 314 315 314 314 313 313 310 303 304 310 313 317 316 319 318 323 322 326 330 325 324 325 326 326 326 326 326 326 327 325 322 320 317 315 313 313
315 315 314 314 314 313 312 311 311 309 303 310 312 314 316 315 319 320 320 324 328 326 324 322 323 323 323 323 324 324 323 322 321 318 316 314 312 311
314 313 314 314 313 313 312 310 309 309 306 309 312 314 315 314 316 318 321 326 331 325 325 323 320 321 320 321 321 321 321 320 318 317 314 312 310 308
313 312 312 314 313 312 311 310 310 310 309 307 311 311 313 314 316 316 319 327 330 328 324 321 319 318 319 319 318 317 316 315 315 314 313 311 309 308
312 312 312 311 310 310 310 309 310 310 310 308 308 313 313 313 314 316 318 323 327 326 321 320 318 318 317 316 315 313 311 309 309 309 310 309 308 307
311 311 310 309 308 308 308 309 309 309 310 310 309 308 311 313 312 312 314 320 320 323 322 319 318 318 316 315 313 312 309 306 306 306 306 305 305 306
308 308 308 308 310 311 309 309 309 309 308 307 307 308 308 309 309 313 312 316 317 319 317 316 317 316 315 314 314 311 307 306 304 304 303 302 302 303
305 306 306 308 308 309 309 310 309 307 305 304 305 304 307 309 310 310 311 311 311 318 314 312 315 313 313 312 311 307 306 305 303 303 302 301 301 301
304 304 304 305 307 306 306 307 307 307 307 307 304 305 305 309 311 309 309 309 310 314 312 309 312 309 311 310 307 305 304 302 302 301 300 300 300 299
303 303 303 303 304 303 303 303 304 306 307 307 308 308 308 309 310 311 310 311 313 315 316 306 309 307 309 308 305 304 302 301 300 300 299 299 299 298
302 303 303 302 300 298 301 300 301 302 304 303 303 302 302 302 307 311 307 307 306 310 313 307 307 305 306 304 304 303 300 299 299 299 299 299 298 297
301 300 299 299 298 297 299 299 298 300 302 302 305 304 303 305 302 306 308 306 305 306 313 306 304 303 300 304 302 302 300 299 298 298 299 299 297 297
297 298 300 297 296 295 296 298 298 299 299 300 300 301 304 306 308 307 307 308 307 306 312 311 304 304 301 299 301 300 299 298 299 298 299 298 297 297
297 298 299 296 295 294 295 296 295 296 297 297 297 298 300 303 306 310 311 311 312 311 313 313 306 304 299 297 297 298 298 298 298 297 299 297 297 297
297 297 296 295 294 295 295 295 295 296 295 295 295 297 299 302 306 308 310 310 310 311 312 313 311 308 304 300 296 296 295 297 299 297 298 296 296 297
297 297 297 296 295 296 296 297 297 297 296 295 296 298 300 300 301 305 306 306 306 307 312 313 312 309 307 303 299 296 297 294 297 297 297 297 297 297
295 294 294 295 296 297 298 298 299 298 297 297 297 297 297 298 300 303 305 306 305 305 306 310 313 311 311 303 300 298 297 296 296 296 296 295 297 297
292 292 294 296 296 297 297 298 298 299 298 298 297 297 296 297 298 300 303 305 304 305 306 308 309 304 302 302 303 298 298 296 296 296 297 294 295 297
293 296 297 298 298 299 299 299 299 300 301 299 298 297 297 297 296 298 300 303 305 305 306 309 307 304 300 298 299 302 298 296 295 295 296 297 297 300
298 297 297 297 297 297 298 298 298 298 299 299 300 299 298 297 297 297 299 301 304 305 305 308 306 306 303 301 297 299 297 296 295 295 295 297 296 297
297 296 296 296 296 297 297 297 297 297 297 297 298 299 298 297 297 297 298 295 299 305 304 306 307 301 310 305 300 297 298 297 299 297 295 293 293 296
295 295 295 296 296 296 296 296 295 295 296 297 298 299 300 298 297 297 298 298 302 305 306 309 309 308 305 305 303 297 295 297 298 298 298 296 295 293
294 295 295 295 296 296 295 294 294 295 298 301 300 300 300 298 299 299 299 300 305 306 307 306 307 307 306 307 301 296 295 295 295 295 295 295 296 296
Wind_Speed
3 3 3 4 4 4 4 2 1 6 9 3 3 6 9 8 11 11 10 14 10 7 8 11 13 13 13 12 11 7 12 9 10 11 6 3 2 3
3 3 3 4 4 4 5 5 4 5 8 2 7 10 8 9 10 10 11 15 9 8 7 9 12 14 14 12 12 14 13 11 11 10 7 5 4 3
3 4 6 6 5 5 5 5 6 6 11 10 7 5 9 8 10 9 9 9 5 6 8 9 12 15 14 14 14 14 12 12 13 10 9 7 5 3
4 4 8 5 6 5 5 8 8 8 9 15 8 5 6 6 8 9 8 7 4 5 7 8 13 12 13 12 13 13 11 12 11 10 10 8 5 4
5 7 8 7 8 6 7 8 8 8 9 9 10 4 3 3 5 6 8 8 4 6 4 9 15 16 15 14 14 13 11 11 11 9 9 8 6 5
6 7 9 9 10 9 8 9 9 9 9 10 10 6 3 3 3 5 7 4 3 2 2 4 10 14 14 14 14 15 13 11 10 10 10 9 8 3
7 9 9 10 16 13 8 9 9 8 8 8 8 8 4 3 4 2 4 6 3 1 1 2 5 7 7 12 13 16 14 11 11 9 9 9 7 7
8 9 8 13 13 15 16 19 16 11 11 8 9 9 10 6 5 4 2 4 3 1 2 1 2 6 6 6 14 15 14 12 11 10 8 9 8 9
9 9 9 8 11 12 13 17 17 18 18 14 12 11 11 9 6 4 4 3 4 1 0 2 2 3 5 8 16 16 14 13 12 9 9 8 9 9
9 10 10 11 12 12 13 13 13 13 13 11 13 12 11 9 10 8 8 5 4 3 5 3 2 2 4 6 16 15 14 13 13 11 10 8 10 10
9 11 10 12 14 13 12 13 13 13 10 15 16 16 13 12 9 5 5 5 4 3 4 3 3 3 2 5 6 15 14 13 13 10 10 10 11 12
8 10 14 15 17 15 13 12 14 13 10 10 9 10 13 12 14 12 9 8 6 4 6 5 4 4 3 2 5 6 6 12 11 11 10 13 12 7
8 9 10 13 15 15 15 12 15 12 12 10 10 9 9 10 10 9 12 11 9 8 6 7 4 3 3 4 3 4 6 8 5 6 10 14 11 8
10 10 12 16 15 17 15 19 19 16 10 10 10 10 10 10 10 11 11 12 11 12 9 11 5 6 5 3 4 4 5 6 7 6 7 10 10 8
10 15 22 24 24 20 22 23 22 11 10 11 11 11 11 10 11 11 12 13 14 11 10 13 9 10 6 6 6 6 7 5 7 7 7 8 7 7
14 12 15 19 23 21 18 14 10 10 11 11 11 10 9 9 11 11 11 11 10 10 13 14 11 12 7 5 6 9 7 7 9 7 7 8 7 7
13 10 10 9 10 9 9 10 9 9 10 10 10 10 10 10 11 11 12 10 11 11 12 11 12 11 7 11 6 8 9 5 9 9 8 7 7 7
9 9 10 9 10 10 10 10 10 12 11 11 11 10 10 11 10 11 11 12 12 12 12 12 11 8 4 4 3 8 6 6 8 10 8 7 6 8
7 9 9 9 10 11 11 11 12 10 10 10 12 11 10 10 11 11 12 12 11 12 11 12 13 13 10 6 3 9 10 7 10 9 9 7 8 10
8 8 9 10 11 11 11 11 11 10 10 11 11 11 11 11 10 12 12 14 14 12 12 11 14 15 14 11 7 6 13 13 11 10 8 4 2 11
9 9 10 11 12 12 12 11 11 11 10 10 10 10 11 11 11 12 12 14 11 13 14 13 15 16 9 11 7 5 6 7 12 13 12 8 5 7
9 10 11 12 12 12 11 10 10 10 10 11 11 11 10 12 12 13 12 12 14 13 13 11 13 13 10 10 11 12 7 6 8 14 9 4 7 11
10 11 12 12 11 11 11 10 10 10 11 9 8 9 11 12 12 11 12 12 11 14 14 11 13 13 11 10 13 11 13 12 10 10 5 9 1 3
Wind_Direction
253 250 247 261 237 227 229 223 271 316 317 332 318 343 337 330 329 329 327 327 332 264 223 185 172 164 163 167 171 165 138 146 141 124 133 126 75 50
243 256 261 266 254 235 228 231 222 241 277 269 310 315 316 319 322 324 319 310 314 276 249 189 172 165 165 160 152 148 144 143 131 128 146 131 109 69
247 263 271 266 270 254 237 235 238 230 266 285 281 285 302 311 317 317 316 309 310 298 274 206 169 170 161 153 153 150 154 150 128 142 145 127 126 104
279 276 273 281 264 256 253 253 252 246 264 280 293 277 282 295 301 309 314 312 302 304 257 202 163 158 157 157 145 138 143 126 131 144 136 135 138 137
269 265 268 269 272 266 258 267 269 271 258 262 277 270 259 293 306 304 312 300 312 320 255 190 168 163 158 151 142 137 133 126 128 130 125 133 136 140
259 260 268 272 277 273 269 270 272 271 270 268 277 273 225 264 270 307 318 309 305 350 54 169 169 150 140 139 143 141 134 132 129 125 122 118 120 125
262 265 268 269 272 267 268 266 266 270 276 285 287 275 243 226 262 272 290 330 300 315 56 73 140 138 139 141 145 143 129 131 128 130 134 129 131 130
272 272 269 275 275 272 266 264 264 265 268 266 270 273 280 254 242 240 267 314 300 120 116 102 130 147 144 147 144 139 134 136 135 135 140 135 132 133
265 274 282 279 272 269 264 264 264 259 254 263 263 255 260 262 253 210 220 221 266 294 58 139 122 123 133 132 143 142 142 144 134 142 142 145 139 131
267 268 272 276 267 271 278 280 274 266 259 259 254 255 254 250 245 244 234 222 225 253 180 187 133 117 133 134 147 147 147 146 143 149 148 158 137 126
268 266 272 277 276 262 271 272 270 263 253 245 253 252 238 230 235 235 226 209 216 223 178 137 143 107 113 140 152 150 147 150 146 155 156 147 132 122
275 287 277 270 270 261 264 268 269 270 271 271 264 252 247 244 228 235 247 230 218 218 179 160 136 139 140 112 148 149 149 153 152 157 159 135 135 135
295 290 279 268 258 258 249 261 262 277 274 266 259 258 250 242 239 222 220 224 214 216 170 167 148 141 99 139 121 152 155 146 152 163 156 142 143 152
284 279 276 273 259 258 261 263 260 260 260 255 251 246 238 233 226 225 213 216 220 218 175 190 162 160 138 131 147 146 158 159 161 160 167 149 148 161
272 270 274 275 274 273 266 260 258 250 245 242 242 241 234 232 232 221 216 212 218 218 195 193 185 172 170 146 152 163 146 180 169 159 164 162 170 176
275 276 270 271 270 267 274 266 247 243 235 236 239 240 235 227 222 217 212 200 204 205 201 190 189 171 176 161 151 159 163 168 170 165 161 166 174 181
288 277 271 269 270 265 259 255 249 242 239 239 237 233 228 224 222 216 218 201 200 194 193 186 184 183 183 156 150 170 164 143 169 161 159 168 175 180
267 264 268 266 267 272 273 271 258 251 241 241 234 227 224 221 219 216 216 214 198 193 190 183 174 142 119 52 121 155 161 151 160 162 161 170 165 187
242 271 272 276 283 287 283 278 277 266 251 238 233 224 219 217 206 213 215 214 203 195 189 180 174 174 174 168 147 182 154 150 153 167 174 179 180 183
280 283 289 293 295 289 287 283 280 274 260 252 242 223 213 211 207 211 210 214 204 189 186 180 177 180 182 168 154 173 178 152 165 164 163 134 76 103
303 298 301 298 292 290 286 284 279 273 265 255 246 237 210 204 206 206 207 210 209 187 187 184 183 174 150 121 121 135 159 170 163 165 152 139 147 162
304 306 304 295 291 289 288 287 283 274 259 244 235 232 218 198 202 199 200 204 206 185 184 177 166 164 150 164 161 146 145 149 128 139 126 100 166 183
312 306 299 293 293 293 293 289 282 277 268 248 237 240 211 192 193 194 198 202 209 178 176 165 161 162 165 163 146 146 146 146 146 145 138 10 166 60